User: anonymous   Login
Location: Irma
(52.9170°N, 111.2330°W)
Time: 05:32:03
(UTC-07:00)
Language:

deb Chang Zheng 4 - Orbit

View from above orbital plane
View from above orbital plane
View from above satellite
View from above satellite

Ground track
Ground track

The orbit data is extracted from the following two-line orbital elements,

1 20847U 90081K   17054.86992409  .00002873  00000-0  38768-3 0  9998
2 20847  98.5427 291.9047 0018390  67.6585 292.6571 14.79870876389041
Epoch (UTC): 23 February 2017 20:52:41
Eccentricity: 0.0018390
inclination: 98.5427°
perigee height: 617 km
apogee height: 642 km
right ascension of ascending node: 291.9047°
argument of perigee: 67.6585°
revolutions per day: 14.79870876
mean anomaly at epoch: 292.6571°
orbit number at epoch: 38904

The dashed part of the orbit path shows where the satellite is in the earth's shadow,  

DLR